| time (UTC) | temp C | wind direction | speed KPH | gust KPH | rain 1hr cm | rain 24hr cm | rain mn cm | humidity % | barometer mb |
| 20260906113055 | 17 | 0 | 0.0 | 3.2 | 0.00 | 0.00 | 0.00 | 97 | 1020.4 |
| 20260906112534 | 17 | 9 | 0.0 | 1.6 | 0.00 | 0.00 | 0.00 | 97 | 1020.4 |
| 20260906112032 | 17 | 0 | 0.0 | 1.6 | 0.00 | 0.00 | 0.00 | 97 | 1020.3 |
| 20260906111556 | 16 | 0 | 0.0 | 0.0 | 0.00 | 0.00 | 0.00 | 97 | 1020.2 |
| 20260906111031 | 17 | 0 | 0.0 | 0.0 | 0.00 | 0.00 | 0.00 | 97 | 1020.1 |
| 20260906110531 | 17 | 0 | 0.0 | 0.0 | 0.00 | 0.00 | 0.00 | 97 | 1020.1 |
| 20260906105530 | 17 | 0 | 0.0 | 0.0 | 0.00 | 0.00 | 0.00 | 97 | 1019.9 |
| 20260906105032 | 17 | 0 | 0.0 | 1.6 | 0.00 | 0.00 | 0.00 | 97 | 1020.1 |
| 20260906104553 | 17 | 0 | 0.0 | 1.6 | 0.00 | 0.00 | 0.00 | 97 | 1020.2 |
| 20260906104030 | 17 | 0 | 0.0 | 1.6 | 0.00 | 0.00 | 0.00 | 97 | 1020.3 |
| 20260906103534 | 17 | 0 | 0.0 | 1.6 | 0.00 | 0.00 | 0.00 | 97 | 1020.0 |
| 20260906103102 | 17 | 0 | 0.0 | 1.6 | 0.00 | 0.00 | 0.00 | 97 | 1019.8 |
| 20260906102533 | 17 | 0 | 0.0 | 1.6 | 0.00 | 0.00 | 0.00 | 97 | 1020.0 |
| 20260906102031 | 17 | 0 | 0.0 | 1.6 | 0.00 | 0.00 | 0.00 | 97 | 1020.0 |
| 20260906101559 | 17 | 0 | 0.0 | 1.6 | 0.00 | 0.00 | 0.00 | 97 | 1020.0 |
| 20260906101029 | 17 | 0 | 0.0 | 0.0 | 0.00 | 0.00 | 0.00 | 97 | 1020.0 |
| 20260906100534 | 17 | 0 | 0.0 | 1.6 | 0.00 | 0.00 | 0.00 | 97 | 1020.0 |
| 20260906100100 | 17 | 0 | 0.0 | 1.6 | 0.00 | 0.00 | 0.00 | 97 | 1020.0 |
| 20260906095530 | 17 | 0 | 0.0 | 1.6 | 0.00 | 0.00 | 0.00 | 97 | 1019.9 |
| 20260906095030 | 17 | 0 | 0.0 | 3.2 | 0.00 | 0.00 | 0.00 | 97 | 1019.7 |
| 20260906094550 | 17 | 0 | 0.0 | 3.2 | 0.00 | 0.00 | 0.00 | 97 | 1019.6 |
| 20260906094030 | 17 | 0 | 0.0 | 0.0 | 0.00 | 0.00 | 0.00 | 97 | 1019.6 |
| 20260906093534 | 17 | 0 | 0.0 | 0.0 | 0.00 | 0.00 | 0.00 | 97 | 1019.6 |
| 20260906093050 | 17 | 0 | 0.0 | 0.0 | 0.00 | 0.00 | 0.00 | 97 | 1019.7 |
| 20260906092530 | 17 | 0 | 0.0 | 0.0 | 0.00 | 0.00 | 0.00 | 97 | 1019.6 |
| 20260906092034 | 17 | 0 | 0.0 | 0.0 | 0.00 | 0.00 | 0.00 | 97 | 1019.6 |
| 20260906091554 | 17 | 0 | 0.0 | 0.0 | 0.00 | 0.00 | 0.00 | 97 | 1019.7 |
| 20260906091033 | 17 | 0 | 0.0 | 0.0 | 0.00 | 0.00 | 0.00 | 97 | 1019.7 |
| 20260906090528 | 17 | 0 | 0.0 | 0.0 | 0.00 | 0.00 | 0.00 | 97 | 1019.7 |
| 20260906090114 | 17 | 0 | 0.0 | 0.0 | 0.00 | 0.00 | 0.00 | 97 | 1019.6 |
| 20260906085530 | 17 | 0 | 0.0 | 0.0 | 0.00 | 0.00 | 0.00 | 97 | 1019.7 |
| 20260906085028 | 17 | 0 | 0.0 | 0.0 | 0.00 | 0.00 | 0.00 | 97 | 1019.8 |
| 20260906084555 | 17 | 0 | 0.0 | 0.0 | 0.00 | 0.00 | 0.00 | 97 | 1019.7 |
| 20260906084030 | 17 | 0 | 0.0 | 0.0 | 0.00 | 0.00 | 0.00 | 97 | 1019.8 |
| 20260906083531 | 17 | 0 | 0.0 | 0.0 | 0.00 | 0.00 | 0.00 | 97 | 1019.8 |
| 20260906083047 | 17 | 0 | 0.0 | 0.0 | 0.00 | 0.00 | 0.00 | 97 | 1019.7 |
| 20260906082527 | 17 | 0 | 0.0 | 0.0 | 0.00 | 0.00 | 0.00 | 97 | 1019.5 |
| 20260906082033 | 17 | 0 | 0.0 | 0.0 | 0.00 | 0.00 | 0.00 | 97 | 1019.4 |
| 20260906081558 | 17 | 0 | 0.0 | 0.0 | 0.00 | 0.00 | 0.00 | 97 | 1019.5 |
| 20260906081029 | 17 | 0 | 0.0 | 0.0 | 0.00 | 0.00 | 0.00 | 97 | 1019.6 |
| 20260906080529 | 17 | 0 | 0.0 | 0.0 | 0.00 | 0.00 | 0.00 | 97 | 1019.5 |
| 20260906080122 | 17 | 0 | 0.0 | 0.0 | 0.00 | 0.00 | 0.00 | 97 | 1019.4 |
| 20260906075529 | 17 | 0 | 0.0 | 0.0 | 0.00 | 0.00 | 0.00 | 97 | 1019.6 |
| 20260906075029 | 17 | 0 | 0.0 | 0.0 | 0.00 | 0.00 | 0.00 | 97 | 1019.5 |
| 20260906074607 | 17 | 0 | 0.0 | 0.0 | 0.00 | 0.00 | 0.00 | 97 | 1019.6 |
| 20260906074030 | 17 | 0 | 0.0 | 0.0 | 0.00 | 0.00 | 0.00 | 97 | 1019.6 |
| 20260906073530 | 17 | 0 | 0.0 | 0.0 | 0.00 | 0.00 | 0.00 | 97 | 1019.4 |
| 20260906073104 | 17 | 0 | 0.0 | 0.0 | 0.00 | 0.00 | 0.00 | 97 | 1019.5 |
| 20260906072530 | 17 | 0 | 0.0 | 0.0 | 0.00 | 0.00 | 0.00 | 97 | 1019.5 |
| 20260906072030 | 17 | 0 | 0.0 | 0.0 | 0.00 | 0.00 | 0.00 | 96 | 1019.4 |
| 20260906071559 | 17 | 0 | 0.0 | 0.0 | 0.00 | 0.00 | 0.00 | 96 | 1019.6 |
| 20260906071030 | 17 | 0 | 0.0 | 0.0 | 0.00 | 0.00 | 0.00 | 96 | 1019.6 |
| 20260906070530 | 17 | 0 | 0.0 | 0.0 | 0.00 | 0.00 | 0.00 | 96 | 1019.5 |
| 20260906070058 | 17 | 0 | 0.0 | 0.0 | 0.00 | 0.00 | 0.00 | 96 | 1019.6 |
| 20260906065533 | 17 | 0 | 0.0 | 0.0 | 0.00 | 0.00 | 0.00 | 96 | 1019.5 |
| 20260906065031 | 17 | 0 | 0.0 | 0.0 | 0.00 | 0.00 | 0.00 | 96 | 1019.5 |
| 20260906064555 | 17 | 0 | 0.0 | 0.0 | 0.00 | 0.00 | 0.00 | 96 | 1019.6 |
| 20260906064029 | 17 | 0 | 0.0 | 0.0 | 0.00 | 0.00 | 0.00 | 96 | 1019.7 |
| 20260906063530 | 17 | 0 | 0.0 | 0.0 | 0.00 | 0.00 | 0.00 | 96 | 1019.7 |
| 20260906063052 | 17 | 0 | 0.0 | 0.0 | 0.00 | 0.00 | 0.00 | 96 | 1019.7 |
| 20260906062530 | 17 | 0 | 0.0 | 0.0 | 0.00 | 0.00 | 0.00 | 96 | 1019.8 |
| 20260906062030 | 17 | 0 | 0.0 | 0.0 | 0.00 | 0.00 | 0.00 | 96 | 1019.9 |
| 20260906061605 | 17 | 0 | 0.0 | 0.0 | 0.00 | 0.00 | 0.00 | 96 | 1019.8 |
| 20260906061029 | 17 | 0 | 0.0 | 0.0 | 0.00 | 0.00 | 0.00 | 96 | 1019.9 |
| 20260906060532 | 17 | 0 | 0.0 | 0.0 | 0.00 | 0.00 | 0.00 | 96 | 1019.8 |
| 20260906060059 | 18 | 0 | 0.0 | 0.0 | 0.00 | 0.00 | 0.00 | 96 | 1019.8 |
| 20260906055532 | 18 | 0 | 0.0 | 0.0 | 0.00 | 0.00 | 0.00 | 96 | 1019.8 |
| 20260906055030 | 18 | 0 | 0.0 | 0.0 | 0.00 | 0.00 | 0.00 | 96 | 1019.8 |
| 20260906054555 | 18 | 0 | 0.0 | 0.0 | 0.00 | 0.00 | 0.00 | 96 | 1019.7 |
| 20260906054030 | 18 | 0 | 0.0 | 3.2 | 0.00 | 0.00 | 0.00 | 96 | 1019.6 |
| 20260906053531 | 18 | 0 | 0.0 | 3.2 | 0.00 | 0.00 | 0.00 | 96 | 1019.6 |
| 20260906053049 | 18 | 0 | 0.0 | 4.8 | 0.00 | 0.00 | 0.00 | 96 | 1019.4 |
| 20260906052535 | 18 | 0 | 0.0 | 4.8 | 0.00 | 0.00 | 0.00 | 96 | 1019.5 |
| 20260906052031 | 18 | 15 | 0.0 | 1.6 | 0.00 | 0.00 | 0.00 | 96 | 1019.6 |
| 20260906051557 | 18 | 0 | 0.0 | 4.8 | 0.00 | 0.00 | 0.00 | 96 | 1019.6 |
| 20260906051033 | 18 | 0 | 0.0 | 4.8 | 0.00 | 0.00 | 0.00 | 95 | 1019.6 |
| 20260906050530 | 18 | 0 | 0.0 | 4.8 | 0.00 | 0.00 | 0.00 | 95 | 1019.6 |
| 20260906050105 | 18 | 0 | 0.0 | 0.0 | 0.00 | 0.00 | 0.00 | 95 | 1019.6 |
| 20260906045529 | 18 | 0 | 0.0 | 0.0 | 0.00 | 0.00 | 0.00 | 95 | 1019.3 |
| 20260906045030 | 18 | 0 | 0.0 | 0.0 | 0.00 | 0.00 | 0.00 | 95 | 1019.2 |
| 20260906044554 | 18 | 0 | 0.0 | 0.0 | 0.00 | 0.00 | 0.00 | 95 | 1019.1 |
| 20260906044031 | 18 | 0 | 0.0 | 0.0 | 0.00 | 0.00 | 0.00 | 95 | 1019.1 |
| 20260906043532 | 18 | 0 | 0.0 | 0.0 | 0.00 | 0.00 | 0.00 | 95 | 1019.3 |
| 20260906043056 | 18 | 0 | 0.0 | 1.6 | 0.00 | 0.00 | 0.00 | 95 | 1019.1 |
| 20260906042529 | 18 | 0 | 0.0 | 1.6 | 0.00 | 0.00 | 0.00 | 95 | 1019.0 |
| 20260906042030 | 18 | 0 | 0.0 | 8.0 | 0.00 | 0.00 | 0.00 | 95 | 1019.0 |
| 20260906041548 | 18 | 0 | 0.0 | 8.0 | 0.00 | 0.00 | 0.00 | 95 | 1018.9 |
| 20260906041030 | 18 | 0 | 0.0 | 8.0 | 0.00 | 0.00 | 0.00 | 95 | 1018.9 |
| 20260906040529 | 18 | 0 | 0.0 | 4.8 | 0.00 | 0.00 | 0.00 | 95 | 1018.8 |
| 20260906040059 | 18 | 0 | 0.0 | 6.4 | 0.00 | 0.00 | 0.00 | 94 | 1018.8 |
| 20260906035531 | 18 | 0 | 1.6 | 9.7 | 0.00 | 0.00 | 0.00 | 94 | 1018.9 |
| 20260906035029 | 18 | 0 | 1.6 | 9.7 | 0.00 | 0.00 | 0.00 | 94 | 1018.9 |
| 20260906034613 | 18 | 10 | 1.6 | 9.7 | 0.00 | 0.00 | 0.00 | 94 | 1018.8 |
| 20260906034031 | 18 | 0 | 0.0 | 6.4 | 0.00 | 0.00 | 0.00 | 94 | 1018.7 |
| 20260906033530 | 18 | 63 | 0.0 | 6.4 | 0.00 | 0.00 | 0.00 | 94 | 1018.7 |
| 20260906033046 | 19 | 68 | 0.0 | 4.8 | 0.00 | 0.00 | 0.00 | 94 | 1018.6 |
| 20260906032529 | 19 | 82 | 0.0 | 3.2 | 0.00 | 0.00 | 0.00 | 94 | 1018.6 |
| 20260906032030 | 19 | 0 | 0.0 | 3.2 | 0.00 | 0.00 | 0.00 | 94 | 1018.5 |
| 20260906031557 | 19 | 83 | 0.0 | 3.2 | 0.00 | 0.00 | 0.00 | 94 | 1018.6 |
| 20260906031029 | 19 | 83 | 0.0 | 3.2 | 0.00 | 0.00 | 0.00 | 94 | 1018.6 |
| 20260906030533 | 19 | 83 | 0.0 | 4.8 | 0.00 | 0.00 | 0.00 | 94 | 1018.5 |
| 20260906030057 | 19 | 0 | 0.0 | 4.8 | 0.00 | 0.00 | 0.00 | 93 | 1018.5 |
| 20260906025530 | 19 | 0 | 0.0 | 4.8 | 0.00 | 0.00 | 0.00 | 93 | 1018.5 |
| 20260906025030 | 19 | 0 | 0.0 | 4.8 | 0.00 | 0.00 | 0.00 | 93 | 1018.4 |
| 20260906024550 | 20 | 0 | 0.0 | 4.8 | 0.00 | 0.00 | 0.00 | 93 | 1018.3 |
| 20260906024030 | 20 | 0 | 0.0 | 4.8 | 0.00 | 0.00 | 0.00 | 93 | 1018.4 |
| 20260906023530 | 20 | 0 | 0.0 | 4.8 | 0.00 | 0.00 | 0.00 | 93 | 1018.4 |
| 20260906023045 | 20 | 0 | 0.0 | 3.2 | 0.00 | 0.00 | 0.00 | 92 | 1018.4 |
| 20260906022532 | 20 | 0 | 0.0 | 4.8 | 0.00 | 0.00 | 0.00 | 92 | 1018.4 |
| 20260906022030 | 20 | 105 | 0.0 | 4.8 | 0.00 | 0.00 | 0.00 | 92 | 1018.4 |
| 20260906021554 | 20 | 105 | 0.0 | 4.8 | 0.00 | 0.00 | 0.00 | 92 | 1018.5 |
| 20260906021029 | 20 | 0 | 0.0 | 6.4 | 0.00 | 0.00 | 0.00 | 91 | 1018.4 |
| 20260906020529 | 20 | 98 | 1.6 | 6.4 | 0.00 | 0.00 | 0.00 | 91 | 1018.3 |
| 20260906020100 | 20 | 0 | 0.0 | 4.8 | 0.00 | 0.00 | 0.00 | 91 | 1018.2 |
| 20260906015532 | 20 | 0 | 0.0 | 4.8 | 0.00 | 0.00 | 0.00 | 91 | 1018.2 |
| 20260906015031 | 20 | 0 | 0.0 | 4.8 | 0.00 | 0.00 | 0.00 | 91 | 1018.2 |
| 20260906014550 | 20 | 0 | 0.0 | 9.7 | 0.00 | 0.00 | 0.00 | 91 | 1018.2 |
| 20260906014032 | 21 | 28 | 1.6 | 9.7 | 0.00 | 0.00 | 0.00 | 91 | 1018.3 |
| 20260906013534 | 21 | 0 | 3.2 | 9.7 | 0.00 | 0.00 | 0.00 | 91 | 1018.1 |
| 20260906013102 | 21 | 84 | 1.6 | 11.3 | 0.00 | 0.00 | 0.00 | 91 | 1018.2 |
| 20260906012532 | 21 | 89 | 1.6 | 11.3 | 0.00 | 0.00 | 0.00 | 91 | 1018.4 |
| 20260906012033 | 21 | 105 | 3.2 | 11.3 | 0.00 | 0.00 | 0.00 | 91 | 1018.4 |
| 20260906011559 | 21 | 79 | 3.2 | 11.3 | 0.00 | 0.00 | 0.00 | 91 | 1018.3 |
| 20260906011031 | 21 | 126 | 1.6 | 9.7 | 0.00 | 0.00 | 0.00 | 90 | 1018.4 |
| 20260906010532 | 21 | 78 | 3.2 | 6.4 | 0.00 | 0.00 | 0.00 | 91 | 1018.4 |
| 20260906010056 | 21 | 0 | 1.6 | 6.4 | 0.00 | 0.00 | 0.00 | 91 | 1018.3 |
| 20260906005531 | 21 | 155 | 1.6 | 6.4 | 0.00 | 0.00 | 0.00 | 90 | 1018.5 |
| 20260906005033 | 21 | 175 | 1.6 | 11.3 | 0.00 | 0.00 | 0.00 | 90 | 1018.5 |
| 20260906004546 | 21 | 360 | 1.6 | 11.3 | 0.00 | 0.00 | 0.00 | 90 | 1018.4 |
| 20260906004032 | 21 | 101 | 3.2 | 8.0 | 0.00 | 0.00 | 0.00 | 90 | 1018.4 |
| 20260906003532 | 21 | 0 | 1.6 | 16.1 | 0.00 | 0.00 | 0.00 | 90 | 1018.3 |
| 20260906003056 | 21 | 0 | 1.6 | 16.1 | 0.00 | 0.00 | 0.00 | 90 | 1018.1 |
| 20260906002531 | 21 | 113 | 3.2 | 11.3 | 0.00 | 0.00 | 0.00 | 89 | 1018.2 |
| 20260906002034 | 21 | 67 | 0.0 | 16.1 | 0.00 | 0.00 | 0.00 | 89 | 1018.2 |
| 20260906001555 | 21 | 57 | 1.6 | 16.1 | 0.00 | 0.00 | 0.00 | 89 | 1018.3 |
| 20260906001034 | 21 | 82 | 3.2 | 16.1 | 0.00 | 0.00 | 0.00 | 89 | 1018.2 |
| 20260906000532 | 21 | 150 | 3.2 | 11.3 | 0.00 | 0.00 | 0.00 | 89 | 1018.1 |
| 20260906000104 | 21 | 343 | 1.6 | 9.7 | 0.00 | 0.00 | 0.00 | 89 | 1018.1 |
| 20260905235533 | 22 | 88 | 3.2 | 14.5 | 0.00 | 0.00 | 0.00 | 88 | 1018.1 |
| 20260905235033 | 22 | 49 | 3.2 | 14.5 | 0.00 | 0.00 | 0.00 | 88 | 1018.1 |
| 20260905234606 | 22 | 95 | 3.2 | 14.5 | 0.00 | 0.00 | 0.00 | 87 | 1018.1 |
| 20260905234032 | 22 | 91 | 4.8 | 14.5 | 0.00 | 0.00 | 0.00 | 87 | 1018.0 |
| 20260905233534 | 22 | 223 | 3.2 | 14.5 | 0.00 | 0.00 | 0.00 | 87 | 1017.9 |
| 20260905233058 | 22 | 119 | 3.2 | 16.1 | 0.00 | 0.00 | 0.00 | 86 | 1018.0 |
| 20260905232532 | 22 | 115 | 3.2 | 16.1 | 0.00 | 0.00 | 0.00 | 86 | 1017.8 |
| 20260905232032 | 23 | 183 | 4.8 | 17.7 | 0.00 | 0.00 | 0.00 | 85 | 1017.9 |
| 20260905231555 | 23 | 180 | 3.2 | 17.7 | 0.00 | 0.00 | 0.00 | 85 | 1018.0 |
| 20260905231033 | 23 | 53 | 3.2 | 16.1 | 0.00 | 0.00 | 0.00 | 85 | 1018.0 |
| 20260905230533 | 23 | 138 | 3.2 | 16.1 | 0.00 | 0.00 | 0.00 | 84 | 1018.0 |
| 20260905230047 | 23 | 32 | 3.2 | 16.1 | 0.00 | 0.00 | 0.00 | 84 | 1017.8 |
| 20260905225530 | 23 | 315 | 3.2 | 19.3 | 0.00 | 0.00 | 0.00 | 84 | 1017.8 |
| 20260905225029 | 24 | 352 | 4.8 | 19.3 | 0.00 | 0.00 | 0.00 | 83 | 1017.7 |
| 20260905224605 | 24 | 121 | 3.2 | 19.3 | 0.00 | 0.00 | 0.00 | 82 | 1017.6 |
| 20260905224030 | 25 | 69 | 4.8 | 19.3 | 0.00 | 0.00 | 0.00 | 81 | 1017.5 |
| 20260905223529 | 25 | 342 | 4.8 | 14.5 | 0.00 | 0.00 | 0.00 | 81 | 1017.5 |
| 20260905223057 | 25 | 46 | 4.8 | 14.5 | 0.00 | 0.00 | 0.00 | 82 | 1017.5 |
| 20260905222531 | 25 | 245 | 4.8 | 12.9 | 0.00 | 0.00 | 0.00 | 81 | 1017.5 |
| 20260905222032 | 25 | 32 | 3.2 | 12.9 | 0.00 | 0.00 | 0.00 | 81 | 1017.6 |
| 20260905221553 | 25 | 76 | 4.8 | 12.9 | 0.00 | 0.00 | 0.00 | 81 | 1017.4 |
| 20260905221030 | 25 | 60 | 3.2 | 12.9 | 0.00 | 0.00 | 0.00 | 81 | 1017.3 |
| 20260905220529 | 25 | 292 | 3.2 | 16.1 | 0.00 | 0.00 | 0.00 | 81 | 1017.4 |
| 20260905220051 | 25 | 78 | 6.4 | 16.1 | 0.00 | 0.00 | 0.00 | 81 | 1017.5 |
| 20260905215530 | 26 | 100 | 3.2 | 12.9 | 0.00 | 0.00 | 0.00 | 80 | 1017.4 |
| 20260905215030 | 26 | 259 | 3.2 | 12.9 | 0.00 | 0.00 | 0.00 | 80 | 1017.4 |
| 20260905214555 | 26 | 313 | 3.2 | 12.9 | 0.00 | 0.00 | 0.00 | 81 | 1017.2 |
| 20260905214029 | 26 | 0 | 4.8 | 12.9 | 0.00 | 0.00 | 0.00 | 80 | 1017.2 |
| 20260905213530 | 26 | 101 | 3.2 | 16.1 | 0.00 | 0.00 | 0.00 | 80 | 1017.1 |
| 20260905213054 | 26 | 325 | 3.2 | 17.7 | 0.00 | 0.00 | 0.00 | 80 | 1017.1 |
| 20260905212530 | 26 | 81 | 1.6 | 17.7 | 0.00 | 0.00 | 0.00 | 82 | 1017.0 |
| 20260905212029 | 26 | 239 | 3.2 | 12.9 | 0.00 | 0.00 | 0.00 | 81 | 1016.8 |
| 20260905211546 | 26 | 317 | 1.6 | 16.1 | 0.00 | 0.00 | 0.00 | 80 | 1016.7 |
| 20260905211031 | 27 | 355 | 4.8 | 16.1 | 0.00 | 0.00 | 0.00 | 78 | 1016.6 |
| 20260905210529 | 27 | 51 | 4.8 | 14.5 | 0.00 | 0.00 | 0.00 | 77 | 1016.7 |
| 20260905210106 | 27 | 218 | 1.6 | 12.9 | 0.00 | 0.00 | 0.00 | 78 | 1016.5 |
| 20260905205529 | 27 | 103 | 1.6 | 16.1 | 0.00 | 0.00 | 0.00 | 77 | 1016.4 |
| 20260905205030 | 27 | 121 | 1.6 | 16.1 | 0.00 | 0.00 | 0.00 | 78 | 1016.6 |
| 20260905204557 | 27 | 125 | 3.2 | 8.0 | 0.00 | 0.00 | 0.00 | 77 | 1016.5 |
| 20260905204029 | 27 | 19 | 3.2 | 8.0 | 0.00 | 0.00 | 0.00 | 76 | 1016.7 |
| 20260905203531 | 27 | 39 | 1.6 | 8.0 | 0.00 | 0.00 | 0.00 | 78 | 1016.7 |
| 20260905203108 | 27 | 106 | 1.6 | 9.7 | 0.00 | 0.00 | 0.00 | 78 | 1016.6 |
| 20260905202530 | 27 | 100 | 1.6 | 9.7 | 0.00 | 0.00 | 0.00 | 77 | 1016.7 |
| 20260905202029 | 27 | 0 | 3.2 | 14.5 | 0.00 | 0.00 | 0.00 | 77 | 1016.7 |
| 20260905201558 | 27 | 263 | 4.8 | 14.5 | 0.00 | 0.00 | 0.00 | 77 | 1016.6 |
| 20260905201030 | 27 | 30 | 3.2 | 8.0 | 0.00 | 0.00 | 0.00 | 76 | 1016.6 |
| 20260905200530 | 27 | 277 | 1.6 | 6.4 | 0.00 | 0.00 | 0.00 | 75 | 1016.7 |
| 20260905200105 | 28 | 301 | 1.6 | 8.0 | 0.00 | 0.00 | 0.00 | 74 | 1016.7 |
| 20260905195529 | 28 | 327 | 1.6 | 8.0 | 0.00 | 0.00 | 0.00 | 78 | 1016.8 |
| 20260905195032 | 27 | 325 | 1.6 | 9.7 | 0.00 | 0.00 | 0.00 | 77 | 1016.8 |
| 20260905194553 | 27 | 296 | 0.0 | 9.7 | 0.00 | 0.00 | 0.00 | 77 | 1016.9 |
| 20260905194030 | 27 | 61 | 1.6 | 8.0 | 0.00 | 0.00 | 0.00 | 76 | 1016.9 |
| 20260905193530 | 27 | 0 | 3.2 | 6.4 | 0.00 | 0.00 | 0.00 | 77 | 1016.9 |
| 20260905193057 | 27 | 125 | 0.0 | 4.8 | 0.00 | 0.00 | 0.00 | 80 | 1017.0 |
| 20260905192529 | 27 | 0 | 0.0 | 6.4 | 0.00 | 0.00 | 0.00 | 79 | 1017.1 |
| 20260905192030 | 27 | 316 | 0.0 | 8.0 | 0.00 | 0.00 | 0.00 | 80 | 1017.2 |
| 20260905191558 | 27 | 297 | 1.6 | 8.0 | 0.00 | 0.00 | 0.00 | 80 | 1017.2 |
| 20260905191030 | 26 | 288 | 1.6 | 8.0 | 0.00 | 0.00 | 0.00 | 82 | 1017.3 |
| 20260905190529 | 26 | 0 | 0.0 | 9.7 | 0.00 | 0.00 | 0.00 | 83 | 1017.1 |
| 20260905190056 | 26 | 0 | 3.2 | 11.3 | 0.00 | 0.00 | 0.00 | 80 | 1017.2 |
| 20260905185529 | 26 | 331 | 3.2 | 11.3 | 0.00 | 0.00 | 0.00 | 81 | 1017.2 |
| 20260905185031 | 26 | 173 | 3.2 | 8.0 | 0.00 | 0.00 | 0.00 | 82 | 1017.4 |
| 20260905184601 | 26 | 45 | 1.6 | 6.4 | 0.00 | 0.00 | 0.00 | 82 | 1017.5 |
| 20260905184031 | 26 | 65 | 1.6 | 6.4 | 0.00 | 0.00 | 0.00 | 83 | 1017.5 |
| 20260905183529 | 26 | 0 | 0.0 | 6.4 | 0.00 | 0.00 | 0.00 | 86 | 1017.5 |
| 20260905183047 | 25 | 0 | 1.6 | 6.4 | 0.00 | 0.00 | 0.00 | 86 | 1017.5 |
| 20260905182531 | 25 | 344 | 1.6 | 6.4 | 0.00 | 0.00 | 0.00 | 85 | 1017.5 |
| 20260905182030 | 25 | 69 | 1.6 | 6.4 | 0.00 | 0.00 | 0.00 | 86 | 1017.6 |
| 20260905181559 | 25 | 37 | 0.0 | 8.0 | 0.00 | 0.00 | 0.00 | 85 | 1017.6 |
| 20260905181029 | 25 | 329 | 1.6 | 9.7 | 0.00 | 0.00 | 0.00 | 85 | 1017.5 |
| 20260905180529 | 25 | 138 | 3.2 | 9.7 | 0.00 | 0.00 | 0.00 | 85 | 1017.4 |
| 20260905180056 | 25 | 331 | 1.6 | 6.4 | 0.00 | 0.00 | 0.00 | 86 | 1017.4 |
| 20260905175530 | 25 | 0 | 0.0 | 6.4 | 0.00 | 0.00 | 0.00 | 86 | 1017.6 |
| 20260905175030 | 24 | 268 | 0.0 | 9.7 | 0.00 | 0.00 | 0.00 | 87 | 1017.6 |
| 20260905174551 | 25 | 343 | 0.0 | 9.7 | 0.00 | 0.00 | 0.00 | 87 | 1017.5 |
| 20260905174031 | 25 | 350 | 1.6 | 8.0 | 0.00 | 0.00 | 0.00 | 87 | 1017.5 |
| 20260905173529 | 25 | 76 | 0.0 | 8.0 | 0.00 | 0.00 | 0.00 | 87 | 1017.5 |
| 20260905173056 | 24 | 76 | 1.6 | 8.0 | 0.00 | 0.00 | 0.00 | 88 | 1017.5 |
| 20260905172530 | 24 | 0 | 1.6 | 6.4 | 0.00 | 0.00 | 0.00 | 88 | 1017.6 |
| 20260905172030 | 24 | 298 | 1.6 | 6.4 | 0.00 | 0.00 | 0.00 | 88 | 1017.6 |
| 20260905171633 | 24 | 113 | 3.2 | 6.4 | 0.00 | 0.00 | 0.00 | 88 | 1017.6 |
| 20260905171034 | 23 | 0 | 1.6 | 6.4 | 0.00 | 0.00 | 0.00 | 89 | 1017.7 |
| 20260905170529 | 23 | 0 | 0.0 | 4.8 | 0.00 | 0.00 | 0.00 | 90 | 1017.6 |
| 20260905170104 | 23 | 0 | 0.0 | 4.8 | 0.00 | 0.00 | 0.00 | 89 | 1017.7 |
| 20260905165534 | 23 | 0 | 0.0 | 4.8 | 0.00 | 0.00 | 0.00 | 89 | 1017.8 |
| 20260905165031 | 23 | 0 | 0.0 | 3.2 | 0.00 | 0.00 | 0.00 | 91 | 1018.0 |
| 20260905164552 | 23 | 0 | 0.0 | 3.2 | 0.00 | 0.00 | 0.00 | 91 | 1017.9 |
| 20260905164030 | 23 | 310 | 0.0 | 8.0 | 0.00 | 0.00 | 0.00 | 91 | 1017.8 |
| 20260905163533 | 23 | 305 | 1.6 | 8.0 | 0.00 | 0.00 | 0.00 | 91 | 1017.9 |
| 20260905163100 | 23 | 0 | 0.0 | 6.4 | 0.00 | 0.00 | 0.00 | 91 | 1017.8 |
| 20260905162529 | 23 | 0 | 0.0 | 9.7 | 0.00 | 0.00 | 0.00 | 91 | 1017.8 |
| 20260905162029 | 23 | 99 | 1.6 | 9.7 | 0.00 | 0.00 | 0.00 | 91 | 1017.9 |
| 20260905161558 | 23 | 50 | 1.6 | 9.7 | 0.00 | 0.00 | 0.00 | 92 | 1017.8 |
| 20260905161032 | 23 | 108 | 1.6 | 14.5 | 0.00 | 0.00 | 0.00 | 92 | 1017.8 |
| 20260905160528 | 23 | 70 | 1.6 | 14.5 | 0.00 | 0.00 | 0.00 | 92 | 1017.9 |
| 20260905160107 | 23 | 19 | 3.2 | 9.7 | 0.00 | 0.00 | 0.00 | 92 | 1017.9 |
| 20260905155530 | 23 | 333 | 0.0 | 9.7 | 0.00 | 0.00 | 0.00 | 92 | 1017.8 |
| 20260905155032 | 23 | 0 | 0.0 | 8.0 | 0.00 | 0.00 | 0.00 | 92 | 1017.7 |
| 20260905154603 | 23 | 342 | 1.6 | 8.0 | 0.00 | 0.00 | 0.00 | 92 | 1017.7 |
| 20260905154029 | 23 | 324 | 3.2 | 9.7 | 0.00 | 0.00 | 0.00 | 92 | 1017.6 |
| 20260905153530 | 23 | 94 | 1.6 | 9.7 | 0.00 | 0.00 | 0.00 | 92 | 1017.6 |
| 20260905153101 | 23 | 0 | 1.6 | 9.7 | 0.00 | 0.00 | 0.00 | 92 | 1017.4 |
| 20260905152527 | 23 | 283 | 3.2 | 9.7 | 0.00 | 0.00 | 0.00 | 92 | 1017.4 |
| 20260905152030 | 23 | 0 | 1.6 | 6.4 | 0.00 | 0.00 | 0.00 | 92 | 1017.6 |
| 20260905151558 | 23 | 0 | 1.6 | 8.0 | 0.00 | 0.00 | 0.00 | 92 | 1017.5 |
| 20260905151029 | 23 | 0 | 0.0 | 9.7 | 0.00 | 0.00 | 0.00 | 93 | 1017.3 |
| 20260905150531 | 22 | 12 | 1.6 | 9.7 | 0.00 | 0.00 | 0.00 | 93 | 1017.2 |
| 20260905150103 | 22 | 5 | 0.0 | 9.7 | 0.00 | 0.00 | 0.00 | 93 | 1017.2 |
| 20260905145534 | 22 | 5 | 1.6 | 11.3 | 0.00 | 0.03 | 0.00 | 93 | 1017.1 |
| 20260905145030 | 22 | 335 | 1.6 | 11.3 | 0.00 | 0.03 | 0.00 | 94 | 1017.2 |
| 20260905144550 | 22 | 0 | 3.2 | 11.3 | 0.00 | 0.03 | 0.00 | 93 | 1017.0 |
| 20260905144029 | 22 | 111 | 1.6 | 6.4 | 0.00 | 0.03 | 0.00 | 94 | 1017.0 |
| 20260905143532 | 22 | 154 | 1.6 | 6.4 | 0.00 | 0.03 | 0.00 | 94 | 1017.1 |
| 20260905143105 | 22 | 0 | 1.6 | 6.4 | 0.00 | 0.03 | 0.00 | 94 | 1017.1 |
| 20260905142532 | 22 | 46 | 0.0 | 8.0 | 0.00 | 0.03 | 0.00 | 94 | 1017.0 |
| 20260905142029 | 22 | 0 | 1.6 | 8.0 | 0.00 | 0.03 | 0.00 | 95 | 1017.0 |
| 20260905141556 | 22 | 342 | 1.6 | 6.4 | 0.00 | 0.03 | 0.00 | 95 | 1016.9 |
| 20260905141030 | 22 | 29 | 1.6 | 6.4 | 0.00 | 0.03 | 0.00 | 96 | 1016.7 |
| 20260905140533 | 22 | 24 | 0.0 | 6.4 | 0.00 | 0.03 | 0.00 | 96 | 1016.8 |
| 20260905140057 | 22 | 0 | 1.6 | 6.4 | 0.00 | 0.03 | 0.00 | 96 | 1016.8 |
| 20260905135530 | 22 | 55 | 0.0 | 6.4 | 0.00 | 0.25 | 0.00 | 96 | 1016.8 |
| 20260905135031 | 21 | 0 | 1.6 | 6.4 | 0.00 | 0.25 | 0.00 | 96 | 1016.6 |
| 20260905134550 | 21 | 0 | 1.6 | 6.4 | 0.00 | 0.25 | 0.00 | 96 | 1016.7 |
| 20260905134031 | 21 | 54 | 0.0 | 8.0 | 0.00 | 0.25 | 0.00 | 97 | 1016.7 |
| 20260905133530 | 21 | 0 | 1.6 | 8.0 | 0.00 | 0.25 | 0.00 | 97 | 1016.8 |
| 20260905133047 | 21 | 11 | 0.0 | 8.0 | 0.00 | 0.25 | 0.00 | 97 | 1016.7 |
| 20260905132530 | 21 | 223 | 1.6 | 8.0 | 0.00 | 0.25 | 0.00 | 97 | 1016.7 |
| 20260905132032 | 21 | 57 | 1.6 | 8.0 | 0.00 | 0.25 | 0.00 | 97 | 1016.8 |
| 20260905131552 | 21 | 251 | 1.6 | 8.0 | 0.00 | 0.25 | 0.00 | 97 | 1016.9 |
| 20260905131030 | 21 | 0 | 0.0 | 8.0 | 0.00 | 0.25 | 0.00 | 97 | 1017.2 |
| 20260905130535 | 21 | 351 | 0.0 | 6.4 | 0.00 | 0.25 | 0.00 | 97 | 1017.2 |
| 20260905130057 | 21 | 0 | 1.6 | 9.7 | 0.00 | 0.25 | 0.00 | 97 | 1017.1 |
| 20260905125532 | 21 | 84 | 1.6 | 9.7 | 0.00 | 0.33 | 0.00 | 97 | 1016.7 |
| 20260905125031 | 21 | 104 | 1.6 | 16.1 | 0.00 | 0.33 | 0.00 | 97 | 1016.5 |
| 20260905124559 | 21 | 0 | 1.6 | 16.1 | 0.00 | 0.33 | 0.00 | 97 | 1016.5 |
| 20260905124034 | 21 | 318 | 0.0 | 12.9 | 0.00 | 0.33 | 0.00 | 97 | 1016.4 |
| 20260905123530 | 21 | 98 | 1.6 | 12.9 | 0.00 | 0.33 | 0.00 | 97 | 1016.4 |
| 20260905123050 | 21 | 10 | 0.0 | 8.0 | 0.00 | 0.33 | 0.00 | 97 | 1016.3 |
| 20260905122531 | 21 | 25 | 1.6 | 8.0 | 0.00 | 0.33 | 0.00 | 97 | 1016.0 |
| 20260905122033 | 21 | 271 | 3.2 | 9.7 | 0.00 | 0.33 | 0.00 | 97 | 1016.1 |
| 20260905121557 | 21 | 0 | 0.0 | 9.7 | 0.00 | 0.33 | 0.00 | 97 | 1015.9 |
| 20260905121030 | 21 | 132 | 1.6 | 8.0 | 0.00 | 0.33 | 0.00 | 97 | 1015.9 |
| 20260905120530 | 20 | 0 | 0.0 | 6.4 | 0.00 | 0.33 | 0.00 | 97 | 1015.9 |
| 20260905120057 | 20 | 11 | 1.6 | 8.0 | 0.00 | 0.33 | 0.00 | 97 | 1015.9 |
| 20260905115529 | 20 | 39 | 1.6 | 9.7 | 0.00 | 0.33 | 0.00 | 97 | 1015.8 |
| 20260905115029 | 20 | 360 | 3.2 | 9.7 | 0.00 | 0.33 | 0.00 | 97 | 1015.6 |
| 20260905114604 | 20 | 43 | 1.6 | 8.0 | 0.00 | 0.33 | 0.00 | 97 | 1015.6 |
| 20260905114030 | 20 | 340 | 0.0 | 8.0 | 0.00 | 0.33 | 0.00 | 97 | 1015.5 |
| 20260905113530 | 20 | 0 | 0.0 | 9.7 | 0.00 | 0.33 | 0.00 | 97 | 1015.4 |